This is the latest recevied weather packets stored in our database for station/object AB4KY. If no packets are shown the sender has not sent any weather packets the latest 10 day(s).
| Time | Temp. | Humidity | Pressure | Rain* | Wind** | Luminosity | Snow |
|---|---|---|---|---|---|---|---|
| 1777819421 | 14.44° C | 46% | 1018 hPa | 0 mm | - | 524 W/m² | - |
| 1777819117 | 13.89° C | 51% | 1018.3 hPa | 0 mm | - | 460 W/m² | - |
| 1777818814 | 13.89° C | 51% | 1018.4 hPa | 0 mm | - | 566 W/m² | - |
| 1777818510 | 13.33° C | 51% | 1018.3 hPa | 0 mm | - | 560 W/m² | - |
| 1777818208 | 13.33° C | 51% | 1018.4 hPa | 0 mm | - | 546 W/m² | - |
| 1777817904 | 12.78° C | 52% | 1018.3 hPa | 0 mm | - | 486 W/m² | - |
| 1777817602 | 12.78° C | 55% | 1018.3 hPa | 0 mm | - | 422 W/m² | - |
| 1777817298 | 12.22° C | 56% | 1018.5 hPa | 0 mm | - | 339 W/m² | - |
| 1777816995 | 12.22° C | 58% | 1018.4 hPa | 0 mm | - | 418 W/m² | - |
| 1777816691 | 11.67° C | 59% | 1018.4 hPa | 0 mm | - | 476 W/m² | - |
| 1777816389 | 11.67° C | 59% | 1018.6 hPa | 0 mm | - | 440 W/m² | - |
| 1777816087 | 11.11° C | 62% | 1018.7 hPa | 0 mm | - | 341 W/m² | - |
| 1777815784 | 11.11° C | 59% | 1018.6 hPa | 0 mm | - | 325 W/m² | - |
| 1777815481 | 10.56° C | 65% | 1018.6 hPa | 0 mm | - | 287 W/m² | - |
| 1777815179 | 10.56° C | 67% | 1018.5 hPa | 0 mm | - | 272 W/m² | - |
| 1777814875 | 9.44° C | 71% | 1018.6 hPa | 0 mm | - | 247 W/m² | - |
| 1777814571 | 8.89° C | 73% | 1018.5 hPa | 0 mm | - | 57 W/m² | - |
| 1777814268 | 8.89° C | 73% | 1018.5 hPa | 0 mm | - | 139 W/m² | - |
| 1777813965 | 8.33° C | 74% | 1018.5 hPa | 0 mm | - | 57 W/m² | - |
| 1777813663 | 7.78° C | 77% | 1018.5 hPa | 0 mm | - | 40 W/m² | - |
| 1777813360 | 7.78° C | 77% | 1018.4 hPa | 0 mm | - | 50 W/m² | - |
| 1777813057 | 7.22° C | 75% | 1018.5 hPa | 0 mm | - | 99 W/m² | - |
| 1777812755 | 6.67° C | 78% | 1018.3 hPa | 0 mm | - | 37 W/m² | - |
| 1777812451 | 6.67° C | 81% | 1018.4 hPa | 0 mm | - | 38 W/m² | - |
| 1777812149 | 6.11° C | 81% | 1018.4 hPa | 0 mm | - | 35 W/m² | - |
* Rain latest hour (hover to see other rain measurements)
** Current wind speed in m/s (hover to see current wind gust speed)